Location: Hains Lake
(37.8540°N, 99.8578°W)
Time: 04:14:45
(UTC+00:00)

Vanguard 2 Rocket - Pass Details

Date: 24 April 2021
Orbit: 553 x 3326 km, 32.9° (Epoch: 07 May)

Event Time Altitude Azimuth Distance (km) Brightness Sun altitude
Rises 02:53:48 0° 280° (W) 7,157 12.8 -17.1°
Reaches altitude 10° 03:01:30 10° 264° (W) 5,780 11.7 -18.4°
Maximum altitude 03:10:23 17° 232° (SW) 4,592 10.6 -19.8°
Drops below altitude 10° 03:17:33 10° 198° (SSW) 4,463 10.2 -20.9°
Enters shadow 03:21:28 - 182° (S) 4,823 10.3 -21.6°
Sets 03:22:19 0° 179° (S) 4,937 - -21.7°
